アトラス彗星

C/2021 G2 ( ATLAS )

English version
Home page
Updated on September 2, 2023

---------------------------------------------------------------------

・ プロフィール

発見日 2021年4月11日
発見光度 19.3等
発見者 Asteroid Terrestrial-Impact Last Alert System (ATLAS) search program

・ 写真集

・ 軌道要素

Epoch 2023 Feb. 25.0 TT = JDT 2460000.5
T 2024 Sept.  9.70128 TT                                Rudenko
q   4.9810578            (2000.0)            P               Q
z  +0.0001706      Peri.  343.33335     -0.84691742     +0.20136047
 +/-0.0000008      Node   221.09791     -0.36089571     -0.89737755
e   0.9991500      Incl.   48.47349     -0.39049349     +0.39264169
>From 786 observations 2021 Sept. 29-2023 July 5, mean residual 0".3.

・ 星図

・ 光度変化

        m1 = 3.5 + 5 logΔ + 10.0 log r

---------------------------------------------------------------------

軌道要素はM.P.E.C. 2023-N16に掲載されたものです。
星図はステラナビゲータ Ver.10 (アストロアーツ) で作成したものです。
光度グラフはComet for Windowsで作成したものです。

---------------------------------------------------------------------

Copyright(C) Seiichi Yoshida (comet@aerith.net). All rights reserved.